Regional Weather Roundup
Issued by NWS

Home | Current Version | Previous Version | Graphics & Text | Print | Product List | Glossary On
Versions: 1 2 3 4 5 6 7 8 9 10 11 12 13 14 15 16 17 18 19 20 21 22 23 24 25 26 27 28 29 30 31 32 33 34 35 36 37 38 39 40 41 42 43 44 45 46 47 48 49 50
000
ASUS43 KMPX 040110
RWRMN
WEATHER ROUNDUP FOR MINNESOTA
NATIONAL WEATHER SERVICE TWIN CITIES/CHANHASSEN MN
800 PM CDT SUN MAY 03 2015


NOTE: "FAIR" INDICATES FEW OR NO CLOUDS BELOW 12,000 FEET WITH NO
SIGNIFICANT WEATHER AND/OR OBSTRUCTIONS TO VISIBILITY. N/A MEANS
CURRENT SKY AND/OR WEATHER CONDITIONS ARE NOT AVAILABLE.

MNZ060>063-068>070-040200-
   Twin Cities Metro

CITY           SKY/WX    TMP DP  RH WIND       PRES   REMARKS
TWIN CITIES    CLOUDY    64  48  56 N8        29.84R
ST PAUL        CLOUDY    63  50  62 N10       29.85R
CRYSTAL        MOCLDY    66  42  41 N12       29.84R
BLAINE         MOCLDY    64  45  48 N5        29.86
LAKEVILLE      CLOUDY    61  48  63 NW8       29.86R
EDEN PRAIRIE   MOCLDY    64  46  52 N9        29.83R
SOUTH ST PAUL  CLOUDY    63  51  65 N7        29.84R
LAKE ELMO      FAIR      59  55  88 N6        29.84F
$$
MNZ001>005-007-008-013>017-022>024-027-028-040200-
   Northwest Minnesota

CITY           SKY/WX    TMP DP  RH WIND       PRES   REMARKS
BEMIDJI        PTCLDY    61  24  24 NW13      29.91R
HALLOCK        PTCLDY    63  28  27 N12G17    29.94R
ROSEAU         CLEAR     59  34  38 NW15      29.94R
WARROAD        CLEAR     57  39  51 NW10G16   29.94R
THIEF RVR FALL PTCLDY    63  25  23 NW13      29.94R
CROOKSTON      PTCLDY    63  25  23 NW14      29.94R
DETROIT LAKES  PTCLDY    64  25  22 N15G22    29.93S
MOORHEAD       MOCLDY    64  19  17 NW14      29.94R
PARK RAPIDS    CLEAR     63  21  20 NW13      29.90S
MAHNOMEN       FAIR      63  23  21 NW9       29.92S
$$
MNZ006-009>011-018-025>026-040200-
   North Central Minnesota

CITY           SKY/WX    TMP DP  RH WIND       PRES   REMARKS
BAUDETTE       CLEAR     57  34  41 NW16G24   29.92R
FLAG ISLAND    CLEAR     55  37  50 NW20      29.92R
INTL FALLS     CLEAR     59  30  33 NW16      29.88R
WASKISH        PTCLDY    61  37  41 NW10G20   29.91R
BIG FORK       CLEAR     61  25  25 W6        29.89R
LONGVILLE      CLEAR     63  27  25 NW5       29.90R
GRAND RAPIDS   CLEAR     63  25  23 NW13      29.89S
CRANE LAKE     CLEAR     61  27  27 NW3       29.87S
COOK           CLEAR     61  28  29 NW7       29.87R
WALKER         FAIR      62  24  23 N3        29.90R
$$
MNZ012-019>021-037-040200-
   Northeast Minnesota

CITY           SKY/WX    TMP DP  RH WIND       PRES   REMARKS
DULUTH         PTCLDY    64  36  35 NW9       29.85R
ELY            PTCLDY    63  19  19 NW6       29.85R
HIBBING        PTCLDY    61  31  32 NW12G17   29.87R
EVELETH        PTCLDY    59  27  29 W6        29.87R
DULUTH HARBOR  PTCLDY    59  50  72 W5        29.84S
TWO HARBORS    MOCLDY    66  41  39 NW7       29.83R
SILVER BAY     CLOUDY    66  34  30 W3        29.82R
GRAND MARAIS     N/A     62  38  40 CALM      29.81R
G MARAIS ARPRT CLOUDY    59  28  31 NW3       29.84S
$$
MNZ029>031-032-039>041-046>048-054>057-064-040200-
   West Central Minnesota

CITY           SKY/WX    TMP DP  RH WIND       PRES   REMARKS
FERGUS FALLS   MOCLDY    63  30  29 NW7       29.93S
WHEATON        PTCLDY    63  30  29 N6        29.94S
MORRIS         PTCLDY    63  28  27 N13       29.91S
ALEXANDRIA     CLEAR     62  27  26 N12       29.92F
ELBOW LAKE     FAIR      62  32  32 N6        29.92F
WADENA         CLEAR     61  32  33 NW6       29.91S
GLENWOOD       CLEAR     63  30  29 NW16      29.91S
APPLETON       CLEAR     66  21  18 N18G24    29.90S
BENSON         CLEAR     64  21  19 N14G20    29.89S
ORTONVILLE     PTCLDY    63  27  25 N15       29.92S
MADISON        CLEAR     64  21  19 N20G26    29.90R
WILLMAR        FAIR      68  37  32 N15G21    29.87R
$$
MNZ033>034-036-042>043-049>051-058-059-040200-
   Central Minnesota

CITY           SKY/WX    TMP DP  RH WIND       PRES   REMARKS
ST CLOUD       CLEAR     66  41  40 N9        29.84S
SAUK CENTRE    FAIR      63  32  31 NW15G22   29.89S
PAYNESVILLE    CLEAR     64  37  36 NW8       29.87R
AITKIN         CLEAR     63  23  22 NW6       29.86S
PINE RIVER     CLEAR     63  34  34 N5        29.92F
BRAINERD       CLEAR     64  32  30 N13       29.88R
STAPLES        CLEAR     61  27  27 NW9       29.90S
LONG PRAIRIE   FAIR      61  32  33 W8        29.90R
LITTLE FALLS   CLEAR     64  32  29 NW7       29.87S
LITCHFIELD     PTCLDY    66  41  39 N6        29.86R
BUFFALO        PTCLDY    64  44  47 NE8       29.85F
MAPLE LAKE     PTCLDY    64  48  55 N3        29.85F
$$
MNZ037-044-045-052-053-040200-
   East Central Minnesota

CITY           SKY/WX    TMP DP  RH WIND       PRES   REMARKS
PRINCETON      PTCLDY    64  43  45 N6        29.85S
MORA           PTCLDY    63  43  48 N3        29.87R
CAMBRIDGE      PTCLDY    68  46  45 NE3       29.82F
RUSH CITY      MOCLDY    64  44  48 NE3       29.85S
MOOSE LAKE     PTCLDY    57  50  77 CALM      29.85R
HINCKLEY       FAIR      63  43  48 NW3       29.85R
CLOQUET        PTCLDY    63  28  27 NW8       29.86R
MCGREGOR       CLEAR     63  36  36 N7        29.87S
$$
MNZ071>073-080-081-089-090-097-098-040200-
   Southwest Minnesota

CITY           SKY/WX    TMP DP  RH WIND       PRES   REMARKS
MONTEVIDEO     CLEAR     66  30  26 N22G31    29.88R
GRANITE FALLS  CLEAR     68  36  31 NW22      29.86S
CANBY          CLEAR     65  30  27 N14G21    29.90R
MARSHALL       CLEAR     68  36  30 N23G30    29.87R
REDWOOD FALLS  PTCLDY    67  39  35 NE8       29.85R
OLIVIA         PTCLDY    66  37  34 N12       29.85S
PIPESTONE      CLEAR     68  34  28 N18G28    29.87R
WORTHINGTON    PTCLDY    66  36  32 N20G25    29.85R
JACKSON        MOCLDY    70  32  24 N18       29.82S
TRACY          CLEAR     68  36  30 N18       29.87R
SLAYTON        PTCLDY    65  36  34 N12       29.88R
$$
MNZ065>067-074>077-082>085-091>093-040200-
   South Central Minnesota

CITY           SKY/WX    TMP DP  RH WIND       PRES   REMARKS
MANKATO          N/A    N/A N/A N/A MISG        N/A
NEW ULM        CLOUDY    66  43  42 N9        29.82R
ST JAMES       CLOUDY    72  36  26 N21       29.82S
FAIRMONT       CLOUDY    72  39  30 N20G26    29.80R
GLENCOE        MOCLDY    66  45  45 N7G17     29.86R
FARIBAULT      CLOUDY    64  48  55 N10G20    29.85R
OWATONNA       CLOUDY    63  52  67 NE12      29.84R
WASECA         CLOUDY    63  50  63 N13       29.84R
ALBERT LEA     CLOUDY    63  61  94 N20G25    29.80R
$$
MNZ078>079-086>088-094>096-040200-
   Southeast Minnesota

CITY           SKY/WX    TMP DP  RH WIND       PRES   REMARKS
ROCHESTER      TSTM      62  58  86 NW12      29.83F
RED WING       CLOUDY    57  57 100 NE9       29.82R
STANTON        CLOUDY    62  53  73 E9        29.81R
DODGE CENTER   CLOUDY    63  55  77 NE8       29.87R
WINONA         HVY RAIN  64  55  72 N10G31    29.80R
AUSTIN         TSTM      59  57  94 N12G17    29.83R
PRESTON        MOCLDY    74  56  51 S9        29.80R THUNDER
$$
ABBREVIATIONS USED IN REMARKS
   TC - TEMPERATURES IN CELSIUS
  WCI - WIND CHILL INDEX
   HX - HEAT INDEX
  VSB - VISIBILITY
$$


USA.gov is the U.S. government's official web portal to all federal, state and local government web resources and services.